Regional Weather Roundup
Issued by NWS Charleston, SC

Current Version | Previous Version | Text Only | Print | Product List | Glossary Off
Versions: 1 2 3 4 5 6 7 8 9 10 11 12 13 14 15 16 17 18 19 20 21 22 23 24 25 26 27 28 29 30 31 32 33 34 35 36 37 38 39 40 41 42 43 44 45 46 47 48 49 50
000 ASUS42 KCHS 221628 RWRCHS REGIONAL WEATHER ROUNDUP NATIONAL WEATHER SERVICE CHARLESTON SC 1200 PM EDT FRI SEP 22 2017 NOTE: "FAIR" INDICATES FEW OR NO CLOUDS BELOW 12,000 FEET WITH NO SIGNIFICANT WEATHER AND/OR OBSTRUCTIONS TO VISIBILITY. NOT ALL STATIONS ARE QUALITY CONTROLLED. USE DATA WITH CAUTION... ESPECIALLY DEWPOINT OBSERVATIONS. SCZ027-030-031-034>040-042>050-221700- ...SOUTHEAST SOUTH CAROLINA... CITY SKY/WX TMP DP RH WIND PRES REMARKS N CHARLESTON MOSUNNY 84 73 69 VRB5 30.05F HX 90 WATERFRONT PRK N/A 82 74 77 VRB3 29.90S JOHNS ISLAND FAIR 84 73 70 NE6 30.05F HX 91 PINOPOLIS N/A 77 73 88 CALM 30.00S MONCKS CORNER FAIR 82 72 69 E3 30.06S SUMMERVILLE FAIR 81 70 69 CALM 30.07S BEAUFORT MCAS MOSUNNY 85 73 67 E7 30.05F HX 91 BEAUFORT ARPT FAIR 81 73 78 NE8 30.05F HAZE HILTON HEAD IS MOSUNNY 82 75 78 NE7 30.06S WALTERBORO MOSUNNY 82 72 69 E5 30.06F ALLENDALE NOT AVBL ...SOUTHERN MIDLANDS AND PEE DEE... CITY SKY/WX TMP DP RH WIND PRES REMARKS GEORGETOWN FAIR 81 72 74 SE3 30.08S KINGSTREE FAIR 82 70 65 N3 30.07R ORANGEBURG SUNNY 84 68 58 VRB3 30.06F BARNWELL FAIR 86 72 62 VRB5 30.06F HX 92 AIKEN FAIR 82 70 65 E3 30.10S MANNING FAIR 81 61 50 MISG 30.07S COLUMBIA SUNNY 85 67 54 CALM 30.06F SUMTER SUNNY 84 67 56 NE6 30.05S FLORENCE SUNNY 82 67 60 VRB7 30.08S MYRTLE BEACH SUNNY 81 69 67 E7 30.07F N MYRTLE BEACH SUNNY 82 69 64 SE7 30.06S $$ GAZ063-065-086>088-099>101-113>116-118-119-134>141-150-221700- ...SOUTHEAST GEORGIA... CITY SKY/WX TMP DP RH WIND PRES REMARKS SAVANNAH ARPT MOSUNNY 87 70 56 E7 30.05F HX 92 HUNTER AAF SUNNY 84 70 62 E7 30.02F FORT STEWART MOSUNNY 83 70 62 E5 30.02F STATESBORO SUNNY 85 67 54 SE5 30.06S SYLVANIA SUNNY 84 74 73 E3 30.07S HX 91 CLAXTON FAIR 85 71 61 NE8 30.05F HX 90 ...CSRA...CENTRAL AND FAR SOUTHEAST GEORGIA... CITY SKY/WX TMP DP RH WIND PRES REMARKS THOMSON SUNNY 83 69 61 CALM 30.12F AUGUSTA-BUSH SUNNY 88 69 53 NE6 30.05F HX 92 AUGUSTA-DANIEL SUNNY 86 68 54 VRB3 30.07F SWAINSBORO FAIR 82 72 69 NE3 30.07S VIDALIA MOSUNNY 84 73 70 NE5 30.06F HX 91 EASTMAN FAIR 87 60 40 CALM 30.08S HAZLEHURST FAIR 86 60 41 NE8 30.04F ALMA MOSUNNY 85 69 58 E7 30.04F WAYCROSS PTSUNNY 85 69 58 N7 30.03F JESUP NOT AVBL BAXLEY FAIR 82 68 61 NE7 30.04F BRUNSWICK CLOUDY 82 70 65 NE15 30.04S SAINT SIMONS CLOUDY 85 74 69 E15 30.03F HX 92 $$ SCZ027-028-034-036>038-045-046-048>050-GAZ119-141-221700- ...LAKE AND SUPPLEMENTAL COASTAL OBSERVATIONS... STATION/POSITION TIME TEMP WIND PRES WAVE SWELL AIR SEA DIR/SP/G HT/PER HT/PER/DIR (UTC) (F) (DEG/KT/KT) (MB) (FT/S) (FT/S/D) WINYAH BAY NOT AVBL LAKE MURRAY 1520 80 30/ 1/ 4 1017.6 ACE BASIN NERRS 1445 80 10/ 3 1018.0 FORT PULASKI 1548 80 80 90/ 10/ 12 1018.1S SAPELO ISLAND 1530 82 CALM 1017.0S $$ ANZ835-935-AMZ111-154-330-350-352-354-370-450-454-472-221700- ...C-MAN AND BUOY OBSERVATIONS... STATION/POSITION TIME TEMP WIND PRES WAVE SWELL AIR SEA DIR/SP/G HT/PER HT/PER/DIR (UTC) (F) (DEG/KT/KT) (MB) (FT/S) (FT/S/D) BUOY 41004 1550 80 81 30/ 10/ 14 1016.9F BUOY 41008 1550 80 81 60/ 14/ 16 1016.6F 3/12 2/130/12 FOLLY BEACH CMAN 1600 81 70/ 7/ 9 1018.3F CAPERS NEARSHORE 1508 79 81 60/ 8/ 12 1017.5R FRIPP NEARSHORE 1508 79 50/ 10/ 12 1025.2R STATION/POSITION TIME TEMP WIND PRES WAVE SWELL AIR SEA DIR/SP/G HT/PER HT/PER/DIR (UTC) (F) (DEG/KT/KT) (MB) (FT/S) (FT/S/D) 5E ST. MARYS GA 1600 82 N/A 3/11 2/100/11 FRYING PAN BUOY 1550 80 90/ 6/ 10 1017.4R 4/11 3/120/11 BUOY 41025 1550 76 77 330/ 6/ 6 1017.5F 5/11 5/ 50/11 CAPE LOOKOUT NC 1600 80 120/ 3/ 4 1017.5S BUOY 41002 1550 78 80 60/ 4/ 6 1017.0S 6/11 7/ 90/11 BUOY 41010 1550 50/ 14/ 19 1015.8R 6/11 5/11 ST AUGUSTINE FL 1600 79 83 50/ 13/ 14 1016.1F $$

USA.gov is the U.S. government's official web portal to all federal, state and local government web resources and services.